Weather History for Fort Bridger AP, Fort Bridger, WY

Change the Weather History Date:

Tuesday, February 4, 2014

  Actual Average (KEVW) Record (KEVW)
Temperature  
Mean Temperature 11 °F 22 °F  
Max Temperature 22 °F 29 °F 41 °F (1999)
Min Temperature -1 °F 14 °F 5 °F (2014)
Degree Days  
Heating Degree Days 54 43  
Month to date heating degree days 174  
Since 1 July heating degree days 5003  
Cooling Degree Days 0 0  
Month to date cooling degree days 0  
Year to date cooling degree days 0  
Moisture  
Dew Point 9 °F    
Average Humidity 79    
Maximum Humidity 96    
Minimum Humidity 48    
Precipitation  
Precipitation 0.00 in 0.01 in 0.06 in (2004)
Month to date precipitation 0.06  
Year to date precipitation 0.60  
Sea Level Pressure  
Sea Level Pressure 29.85 in    
Wind  
Wind Speed 9 mph (West)    
Max Wind Speed 15 mph    
Max Gust Speed 22 mph    
Visibility 8 miles    
Events Snow    
T = Trace of Precipitation, MM = Missing Value Source: NWS Daily Summary

Daily Weather History Graph

Daily Weather History Graph

Search for Another Location

Airport:

Trip Planner

Search our weather history database for the weather conditions in past years. The results will help you decide how hot, cold, wet, or windy it might be!

Date:

Astronomy

Feb. 04, 2014 Rise Set
Actual Time 7:29 AM MST 5:41 PM MST
Civil Twilight 7:00 AM MST 6:10 PM MST
Nautical Twilight 6:27 AM MST 6:43 PM MST
Astronomical Twilight 5:55 AM MST 7:16 PM MST
Moon 10:05 AM MST (2/4) 11:44 PM MST (2/4)
Length of Visible Light 11h 10m
Length of Day
10h 11m
Waxing Crescent, 29% of the Moon is Illuminated
Feb 4
Waxing Crescent
Feb 6
First Quarter
Feb 14
Full
Feb 22
Last Quarter
Mar 1
New

Hourly Weather History & Observations

Time (MST) Temp. Windchill Dew Point Humidity Pressure Visibility Wind Dir Wind Speed Gust Speed Precip Events Conditions
12:15 AM 20.8 °F 12.1 °F 18.5 °F 91% 29.74 in 10.0 mi SW 6.9 mph - N/A   Overcast
12:35 AM 20.3 °F 10.6 °F 18.1 °F 91% 29.74 in 10.0 mi SW 8.1 mph - N/A   Overcast
12:55 AM 20.8 °F 11.2 °F 18.5 °F 91% 29.74 in 5.0 mi SW 8.1 mph - N/A Snow Light Snow
1:15 AM 20.7 °F 11.0 °F 18.9 °F 93% 29.72 in 2.0 mi SW 8.1 mph - N/A Snow Light Snow
1:35 AM 20.3 °F 11.5 °F 18.5 °F 93% 29.73 in 7.0 mi WSW 6.9 mph - N/A Snow Light Snow
1:55 AM 19.8 °F 13.2 °F 18.3 °F 94% 29.72 in 4.0 mi WSW 4.6 mph - N/A Snow Light Snow
2:15 AM 19.8 °F 10.8 °F 18.5 °F 95% 29.73 in 1.5 mi WSW 6.9 mph - N/A Snow Light Snow
2:35 AM 19.9 °F 11.1 °F 18.9 °F 96% 29.73 in 3.0 mi West 6.9 mph - N/A Snow Light Snow
2:55 AM 20.3 °F 8.3 °F 19.2 °F 96% 29.74 in 1.5 mi WNW 11.5 mph - N/A Snow Light Snow
3:15 AM 17.2 °F 3.9 °F 15.4 °F 93% 29.74 in 3.0 mi NNW 12.7 mph - N/A Snow Light Snow
3:35 AM 16.5 °F 4.3 °F 13.8 °F 89% 29.74 in 7.0 mi NNW 10.4 mph - N/A Snow Light Snow
3:55 AM 15.3 °F 5.4 °F 12.0 °F 87% 29.74 in 10.0 mi NW 6.9 mph - N/A   Overcast
4:15 AM 14.9 °F 4.0 °F 12.2 °F 89% 29.74 in 10.0 mi WNW 8.1 mph - N/A   Overcast
4:35 AM 14.9 °F 5.0 °F 11.7 °F 87% 29.75 in 10.0 mi West 6.9 mph - N/A   Overcast
4:55 AM 14.5 °F 3.6 °F 11.7 °F 88% 29.75 in 10.0 mi West 8.1 mph - N/A   Overcast
5:15 AM 13.8 °F 3.7 °F 11.3 °F 90% 29.76 in 10.0 mi West 6.9 mph - N/A   Overcast
5:35 AM 15.4 °F 3.8 °F 12.7 °F 89% 29.77 in 10.0 mi WSW 9.2 mph - N/A   Overcast
5:55 AM 15.1 °F 4.2 °F 11.1 °F 84% 29.77 in 10.0 mi WSW 8.1 mph - N/A   Overcast
6:15 AM 14.0 °F 1.2 °F 9.3 °F 82% 29.77 in 10.0 mi WSW 10.4 mph - N/A   Overcast
6:35 AM 14.0 °F 2.0 °F 9.5 °F 82% 29.77 in 10.0 mi WSW 9.2 mph - N/A   Overcast
6:55 AM 12.2 °F -1.0 °F 8.6 °F 85% 29.78 in 10.0 mi WSW 10.4 mph - N/A   Mostly Cloudy
7:10 AM 12.4 °F -0.8 °F 9.3 °F 88% 29.78 in 10.0 mi WSW 10.4 mph - N/A   Scattered Clouds
7:35 AM 12.9 °F -1.6 °F 9.1 °F 85% 29.78 in 10.0 mi WSW 12.7 mph - N/A   Clear
7:55 AM 11.7 °F -2.5 °F 7.2 °F 82% 29.79 in 10.0 mi WSW 11.5 mph - N/A   Scattered Clouds
8:15 AM 12.0 °F -2.0 °F 6.6 °F 79% 29.79 in 10.0 mi WSW 11.5 mph 19.6 mph N/A   Scattered Clouds
8:35 AM 12.9 °F -0.9 °F 6.4 °F 75% 29.80 in 10.0 mi WSW 11.5 mph - N/A   Clear
8:55 AM 12.7 °F 1.4 °F 6.4 °F 76% 29.80 in 10.0 mi West 8.1 mph - N/A   Clear
9:15 AM 13.8 °F 2.7 °F 7.2 °F 75% 29.81 in 10.0 mi West 8.1 mph - N/A   Clear
9:35 AM 15.4 °F 3.8 °F 8.1 °F 73% 29.82 in 10.0 mi West 9.2 mph - N/A   Clear
9:55 AM 16.3 °F 4.9 °F 8.1 °F 70% 29.82 in 10.0 mi West 9.2 mph - N/A   Clear
10:15 AM 17.8 °F 5.2 °F 8.4 °F 67% 29.83 in 10.0 mi West 11.5 mph 16.1 mph N/A   Clear
10:35 AM 19.4 °F 6.0 °F 6.8 °F 58% 29.84 in 10.0 mi West 13.8 mph 17.3 mph N/A   Clear
10:55 AM 20.1 °F 7.5 °F 7.3 °F 58% 29.85 in 10.0 mi West 12.7 mph - N/A   Scattered Clouds
11:15 AM 19.8 °F 7.7 °F 6.1 °F 55% 29.85 in 10.0 mi West 11.5 mph 16.1 mph N/A   Clear
11:35 AM 20.5 °F 8.6 °F 6.6 °F 55% 29.85 in 10.0 mi West 11.5 mph - N/A   Clear
11:55 AM 21.9 °F 9.8 °F 8.2 °F 56% 29.85 in 10.0 mi WNW 12.7 mph - N/A   Mostly Cloudy
12:15 PM 21.9 °F 9.2 °F 8.8 °F 57% 29.85 in 10.0 mi West 13.8 mph 17.3 mph N/A   Mostly Cloudy
12:35 PM 22.5 °F 10.5 °F 8.8 °F 56% 29.85 in 10.0 mi WNW 12.7 mph - N/A   Overcast
12:55 PM 22.1 °F 10.0 °F 8.4 °F 56% 29.85 in 10.0 mi WNW 12.7 mph 18.4 mph N/A   Overcast
1:15 PM 19.0 °F 5.6 °F 7.7 °F 61% 29.84 in 10.0 mi WNW 13.8 mph - N/A   Mostly Cloudy
1:35 PM 20.3 °F 7.2 °F 7.2 °F 57% 29.84 in 10.0 mi WNW 13.8 mph 18.4 mph N/A   Mostly Cloudy
1:55 PM 21.0 °F 9.3 °F 9.5 °F 61% 29.84 in 3.0 mi West 11.5 mph 21.9 mph N/A Snow Light Snow
2:15 PM 19.4 °F 5.5 °F 7.9 °F 61% 29.85 in 10.0 mi West 15.0 mph 21.9 mph N/A   Overcast
2:35 PM 18.7 °F 5.7 °F 10.4 °F 70% 29.85 in 10.0 mi WSW 12.7 mph - N/A   Mostly Cloudy
2:55 PM 21.6 °F 8.2 °F 4.6 °F 48% 29.85 in 10.0 mi West 15.0 mph 19.6 mph N/A   Scattered Clouds
3:15 PM 22.5 °F 10.5 °F 9.0 °F 56% 29.86 in 10.0 mi WNW 12.7 mph - N/A   Mostly Cloudy
3:30 PM 21.9 °F 9.8 °F 9.5 °F 59% 29.87 in 10.0 mi West 12.7 mph 18.4 mph N/A   Overcast
3:55 PM 18.1 °F 5.6 °F 10.0 °F 71% 29.88 in 7.0 mi West 11.5 mph - N/A Snow Light Snow
4:15 PM 17.4 °F 5.4 °F 13.3 °F 84% 29.88 in 4.0 mi West 10.4 mph - N/A Snow Light Snow
4:35 PM 17.6 °F 4.3 °F 8.1 °F 66% 29.89 in 10.0 mi West 12.7 mph - N/A   Overcast
4:55 PM 15.4 °F 4.6 °F 7.7 °F 71% 29.90 in 10.0 mi West 8.1 mph - N/A   Mostly Cloudy
5:15 PM 14.5 °F - 8.6 °F 77% 29.90 in 10.0 mi North - - N/A   Mostly Cloudy
5:35 PM 13.1 °F - 9.0 °F 84% 29.90 in 10.0 mi North - - N/A   Scattered Clouds
5:55 PM 11.1 °F 0.4 °F 8.2 °F 88% 29.91 in 10.0 mi WSW 6.9 mph - N/A   Scattered Clouds
6:15 PM 9.5 °F -2.6 °F 7.5 °F 92% 29.92 in 10.0 mi WSW 8.1 mph - N/A   Scattered Clouds
6:35 PM 11.7 °F 2.3 °F 8.6 °F 88% 29.93 in 10.0 mi West 5.8 mph - N/A   Mostly Cloudy
6:55 PM 11.3 °F 5.1 °F 7.7 °F 85% 29.94 in 10.0 mi West 3.5 mph - N/A Snow Light Snow
7:15 PM 11.8 °F - 8.8 °F 88% 29.94 in 2.0 mi Calm Calm - N/A Snow Light Snow
7:35 PM 12.2 °F 4.3 °F 10.0 °F 91% 29.95 in 1.5 mi NW 4.6 mph - N/A Snow Light Snow
7:55 PM 12.2 °F 4.3 °F 10.2 °F 92% 29.95 in 1.5 mi WNW 4.6 mph - N/A Snow Light Snow
8:15 PM 10.9 °F 2.9 °F 8.8 °F 91% 29.95 in 4.0 mi WNW 4.6 mph - N/A Snow Light Snow
8:35 PM 10.8 °F - 8.6 °F 91% 29.96 in 7.0 mi Calm Calm - N/A Snow Light Snow
8:55 PM 8.6 °F -2.6 °F 6.8 °F 92% 29.97 in 2.0 mi North 6.9 mph - N/A Snow Light Snow
9:15 PM 7.7 °F -3.7 °F 5.5 °F 91% 29.98 in 3.0 mi NNW 6.9 mph - N/A Snow Light Snow
9:35 PM 6.8 °F -5.9 °F 4.6 °F 91% 29.99 in 2.5 mi NNW 8.1 mph - N/A Snow Light Snow
9:55 PM 4.6 °F -6.0 °F 2.1 °F 89% 30.00 in 3.0 mi North 5.8 mph - N/A Snow Light Snow
10:10 PM 2.3 °F -12.4 °F -0.4 °F 88% 30.00 in 5.0 mi North 9.2 mph - N/A Snow Light Snow
10:35 PM 1.9 °F -12.9 °F -0.8 °F 88% 30.01 in 10.0 mi North 9.2 mph - N/A Snow Light Snow
10:55 PM 1.9 °F -10.6 °F -0.8 °F 88% 30.01 in 10.0 mi North 6.9 mph - N/A   Overcast
11:35 PM 0.1 °F -11.4 °F -2.9 °F 87% 30.01 in 10.0 mi North 5.8 mph - N/A   Overcast
11:50 PM -1.5 °F -13.3 °F -4.5 °F 87% 30.01 in 10.0 mi North 5.8 mph - N/A   Overcast